Budapest Ferihegy, Hungary

6:33 AM CEST on May 27, 2018 (GMT +0200)
Ferihegy

Weather History for LHBP - January, 2013

Change the Weather History Date:

Wednesday, January 16, 2013

  Actual Average Record
Temperature  
Mean Temperature 34 °F -  
Max Temperature 37 °F 38 °F 53 °F (2004)
Min Temperature 30 °F 23 °F 10 °F (2017)
Degree Days  
Heating Degree Days 32    
Moisture  
Dew Point 35 °F    
Average Humidity 100    
Maximum Humidity 100    
Minimum Humidity 93    
Precipitation  
Precipitation 0.00 in - - ()
Sea Level Pressure  
Sea Level Pressure 29.60 in    
Wind  
Wind Speed 7 mph ()    
Max Wind Speed 13 mph    
Max Gust Speed -    
Visibility 2.2 miles    
Events Fog , Rain    
Averages and records for this station are not official NWS values.
T = Trace of Precipitation, MM = Missing Value Source: Averaged Metar Reports

Daily Weather History Graph

Daily Weather History Graph

Search for Another Location

Airport or City:

Astronomy

Jan. 16, 2013 Rise Set
Actual Time 7:25 AM CET 4:20 PM CET
Civil Twilight 6:50 AM CET 4:55 PM CET
Nautical Twilight 6:12 AM CET 5:33 PM CET
Astronomical Twilight 5:35 AM CET 6:10 PM CET
Moon 9:27 AM CET (1/16) 10:21 PM CET (1/16)
Length of Visible Light 10h 04m
Length of Day
8h 55m
Waxing Crescent, 25% of the Moon is Illuminated
Jan 16
Waxing Crescent
Jan 19
First Quarter
Jan 27
Full
Feb 3
Last Quarter
Feb 10
New

Hourly Weather History & Observations

Time (CET) Temp. Windchill Dew Point Humidity Pressure Visibility Wind Dir Wind Speed Gust Speed Precip Events Conditions
12:00 AM 37.4 °F 30.3 °F 37.4 °F 100% 29.71 in 2.2 mi NE 10.4 mph - N/A   Overcast
12:30 AM 35.6 °F 28.6 °F 35.6 °F 100% 29.68 in 2.2 mi NE 9.2 mph - N/A Rain Mostly Cloudy
1:00 AM 37.4 °F 32.1 °F 37.4 °F 100% 29.68 in 2.2 mi NE 6.9 mph - N/A Rain Light Rain
1:30 AM 37.4 °F 32.1 °F 37.4 °F 100% 29.68 in 1.6 mi NNW 6.9 mph - N/A Rain Light Rain
2:00 AM 35.6 °F 29.9 °F 35.6 °F 100% 29.65 in 1.5 mi NNW 6.9 mph - N/A Rain Light Rain
2:30 AM 35.6 °F 31.7 °F 35.6 °F 100% 29.65 in 1.5 mi NNE 4.6 mph - N/A Rain Light Rain
3:00 AM 35.6 °F 29.2 °F 35.6 °F 100% 29.65 in 1.5 mi NNW 8.1 mph - N/A Rain Light Rain
3:30 AM 35.6 °F 29.9 °F 35.6 °F 100% 29.62 in 1.9 mi NNW 6.9 mph - N/A Rain Light Rain
4:00 AM 35.6 °F 29.9 °F 35.6 °F 100% 29.62 in - NW 6.9 mph - N/A Rain Light Rain
4:30 AM 35.6 °F 28.6 °F 35.6 °F 100% 29.62 in 2.2 mi NNW 9.2 mph - N/A Rain Light Rain
5:00 AM 35.6 °F 28.0 °F 35.6 °F 100% 29.59 in 2.5 mi NNW 10.4 mph - N/A Rain Light Rain
5:30 AM 35.6 °F 28.6 °F 35.6 °F 100% 29.59 in 2.5 mi NNW 9.2 mph - N/A Rain Light Rain
6:00 AM 35.6 °F 29.2 °F 35.6 °F 100% 29.59 in - NW 8.1 mph - N/A Rain Light Rain
6:30 AM 35.6 °F 29.2 °F 35.6 °F 100% 29.59 in 2.2 mi NW 8.1 mph - N/A Rain Light Rain
7:00 AM 35.6 °F 29.2 °F 35.6 °F 100% 29.59 in 3.1 mi NNW 8.1 mph - N/A   Mostly Cloudy
7:30 AM 35.6 °F 30.7 °F 35.6 °F 100% 29.59 in 2.8 mi NW 5.8 mph - N/A   Mostly Cloudy
8:00 AM 33.8 °F 28.6 °F 33.8 °F 100% 29.59 in 2.8 mi WNW 5.8 mph - N/A   Mostly Cloudy
8:30 AM 35.6 °F 31.7 °F 35.6 °F 100% 29.59 in 2.5 mi WNW 4.6 mph - N/A   Overcast
9:00 AM 35.6 °F 29.9 °F 35.6 °F 100% 29.62 in - WNW 6.9 mph - N/A   Overcast
9:30 AM 35.6 °F 28.6 °F 35.6 °F 100% 29.62 in 2.5 mi WNW 9.2 mph - N/A   Overcast
10:00 AM 35.6 °F 27.1 °F 35.6 °F 100% 29.62 in - West 12.7 mph - N/A   Overcast
10:30 AM 35.6 °F 28.0 °F 35.6 °F 100% 29.62 in - WNW 10.4 mph - N/A   Mostly Cloudy
11:00 AM 37.4 °F 29.8 °F 37.4 °F 100% 29.62 in - WNW 11.5 mph - N/A   Mostly Cloudy
11:30 AM 35.6 °F 28.0 °F 35.6 °F 100% 29.62 in - NW 10.4 mph - N/A   Overcast
12:00 PM 35.6 °F 28.0 °F 35.6 °F 100% 29.62 in - NW 10.4 mph - N/A   Mostly Cloudy
12:30 PM 35.6 °F 27.1 °F 35.6 °F 100% 29.59 in 2.5 mi WNW 12.7 mph - N/A   Mostly Cloudy
1:00 PM 35.6 °F 28.6 °F 35.6 °F 100% 29.59 in 3.1 mi NW 9.2 mph - N/A   Mostly Cloudy
1:30 PM 37.4 °F 30.8 °F 37.4 °F 100% 29.59 in 4.3 mi WNW 9.2 mph - N/A   Mostly Cloudy
2:00 PM 37.4 °F 31.4 °F 35.6 °F 93% 29.59 in 5.0 mi WNW 8.1 mph - N/A   Scattered Clouds
2:30 PM 37.4 °F 31.4 °F 35.6 °F 93% 29.56 in 5.0 mi NW 8.1 mph - N/A   Mostly Cloudy
3:00 PM 37.4 °F 30.8 °F 35.6 °F 93% 29.56 in 5.0 mi NNW 9.2 mph - N/A   Unknown
3:30 PM 35.6 °F 30.7 °F 35.6 °F 100% 29.56 in 4.3 mi West 5.8 mph - N/A   Unknown
4:00 PM 35.6 °F 31.7 °F 35.6 °F 100% 29.56 in 3.1 mi NNW 4.6 mph - N/A   Mist
4:30 PM 33.8 °F 28.6 °F 33.8 °F 100% 29.56 in 2.5 mi NNE 5.8 mph - N/A   Mist
5:00 PM 32.0 °F 26.4 °F 32.0 °F 100% 29.56 in 2.5 mi NNE 5.8 mph - N/A   Mist
5:30 PM 32.0 °F - 32.0 °F 100% 29.56 in 2.5 mi Variable 1.2 mph - N/A   Mist
6:00 PM 32.0 °F 27.5 °F 32.0 °F 100% 29.56 in 3.1 mi NNE 4.6 mph - N/A   Mist
6:30 PM 32.0 °F - 32.0 °F 100% 29.56 in 1.9 mi Variable 2.3 mph - N/A   Partly Cloudy
7:00 PM 30.2 °F 26.7 °F 30.2 °F 100% 29.56 in 0.5 mi Variable 3.5 mph - N/A   Mostly Cloudy
7:30 PM 32.0 °F 27.5 °F 32.0 °F 100% 29.56 in 0.2 mi NW 4.6 mph - N/A Fog Light Freezing Fog
8:00 PM 32.0 °F 26.4 °F 32.0 °F 100% 29.56 in 0.2 mi NW 5.8 mph - N/A Fog Light Freezing Fog
8:30 PM 32.0 °F - 32.0 °F 100% 29.59 in 0.2 mi Variable 2.3 mph - N/A Fog Light Freezing Fog
9:00 PM 32.0 °F 27.5 °F 32.0 °F 100% 29.56 in 0.2 mi NW 4.6 mph - N/A Fog Light Freezing Fog
9:30 PM 32.0 °F 26.4 °F 32.0 °F 100% 29.56 in 0.6 mi NNW 5.8 mph - N/A   Overcast
10:00 PM 33.8 °F 28.6 °F 33.8 °F 100% 29.56 in 0.6 mi North 5.8 mph - N/A   Overcast
10:30 PM 33.8 °F 28.6 °F 33.8 °F 100% 29.56 in 0.4 mi NNE 5.8 mph - N/A Fog Light Freezing Fog
11:00 PM 35.6 °F 29.2 °F 35.6 °F 100% 29.53 in 0.5 mi North 8.1 mph - N/A   Overcast
11:30 PM 35.6 °F 29.9 °F 35.6 °F 100% 29.53 in 1.6 mi NNE 6.9 mph - N/A   Overcast